Location: Ambleteuse
(50.8097°N, 1.6071°E)
Time: 20:42:46
(UTC+00:00)

Daily predictions for brighter satellites

Satellite Brightness Start Highest point End
(mag) Time Altitude Azimuth Time Altitude Azimuth Time Altitude Azimuth
NOAA 12 4.2 17:09:21 10° SSE 17:14:39 87° ENE 17:20:01 10° NNW
Cosmos 304 Rocket 3.8 17:10:45 10° SSW 17:15:32 82° ESE 17:20:21 10° NNE
FALCON 9 DEB 3.1 17:12:14 10° WSW 17:15:40 82° NNW 17:19:06 10° ENE
Cosmos 1689 Rocket 3.8 17:14:08 10° NE 17:15:52 15° E 17:17:35 10° SE
Cosmos 1452 Rocket 3.6 17:11:36 10° S 17:16:47 64° ESE 17:22:02 10° NNE
Okean O Rocket 1.8 17:13:54 10° SSE 17:18:17 80° WSW 17:22:41 10° NNW
Cosmos 2279 Rocket 4.3 17:13:46 10° SSW 17:20:01 74° WNW 17:26:17 10° N
Cosmos 1328 3.7 17:16:45 10° N 17:20:41 68° ENE 17:24:37 10° SSE
H-2A R/B 2.3 17:16:34 10° NNE 17:20:48 72° WNW 17:24:55 10° SSW
H-2A R/B 3.3 17:17:32 10° ESE 17:21:37 22° ENE 17:25:43 10° N
Cosmos 2098 Rocket 3.3 17:19:25 10° NNW 17:22:41 50° W 17:25:33 10° S
H-2A R/B 4.5 17:20:06 10° SSW 17:24:13 37° W 17:28:26 10° NNW
ADEOS Rocket 3.4 17:18:37 10° NNE 17:24:49 82° WNW 17:31:42 10° SSW
Cosmos 1340 4.0 17:22:08 10° NNE 17:24:59 20° ENE 17:27:48 10° ESE
NOSS 2-1 (E) 3.4 17:22:47 10° WSW 17:26:05 61° NW 17:29:51 10° NE
IRS-1C Rocket 4.3 17:21:26 10° SE 17:26:32 52° ENE 17:31:39 10° N
Cosmos 1825 Rocket 3.7 17:22:34 10° N 17:26:58 55° ENE 17:31:20 10° SSE
Cosmos 1356 Rocket 3.5 17:23:02 10° S 17:27:18 89° ESE 17:31:38 10° NNE
CORIOLIS 4.3 17:22:29 10° SSE 17:27:50 81° WSW 17:33:14 10° NNW
ERS-2 2.1 17:24:25 10° NNE 17:28:03 63° ESE 17:31:39 10° S
CZ-4 R/B 2.2 17:25:56 10° ESE 17:29:14 27° ENE 17:32:31 10° N
BREEZE-M DEB (TANK) 3.9 17:27:00 10° WSW 17:30:27 84° SSE 17:42:44 10° ENE
YAOGAN 1 3.4 17:29:21 10° ESE 17:33:04 28° ENE 17:36:47 10° N
Lacrosse 5 2.3 17:28:53 10° WSW 17:33:53 58° NNW 17:38:55 10° ENE
Cosmos 2219 3.7 17:28:26 10° NNW 17:33:53 42° NE 17:39:19 10° ESE
USA 281 4.0 17:27:35 10° S 17:34:00 57° WSW 17:40:30 10° NNW
Meteor 2-21 Rocket 4.5 17:28:25 10° N 17:34:35 61° ENE 17:40:39 10° SSE
ERBS 3.1 17:31:40 10° W 17:34:54 45° NNW 17:38:04 11° NE
CZ-4B R/B 1.2 17:36:07 10° NNE 17:39:26 77° ESE 17:42:37 10° S
SAR-Lupe-4 3.8 17:36:23 10° NNE 17:39:52 47° E 17:43:21 10° S
Cosmos 1400 Rocket 4.0 17:39:56 10° SE 17:43:13 23° E 17:46:30 10° NE
USA 305 3.3 17:39:12 10° WNW 17:43:28 55° N 17:46:51 15° E
Cosmos 1758 Rocket 3.7 17:39:51 10° NNW 17:44:18 80° W 17:48:40 10° S
Cosmos 44 4.2 17:40:50 10° S 17:44:32 25° ESE 17:47:38 14° ENE
Cosmos 1726 Rocket 3.9 17:42:05 10° SSE 17:46:11 42° E 17:50:20 10° NNE
CZ-4C R/B 3.9 17:41:06 10° NW 17:46:15 27° N 17:52:05 10° ENE
Okean-O 2.9 17:42:03 10° SE 17:46:17 46° ENE 17:50:33 10° N
Meteor 2-14 Rocket 4.5 17:41:00 10° N 17:47:13 87° E 17:53:21 10° S
NOSS 2-2 (E) 4.4 17:43:41 10° NW 17:48:59 73° NE 17:56:24 10° SE
USA 306 3.2 17:45:28 10° WNW 17:49:42 56° N 17:52:49 17° E
Cosmos 1818 4.1 17:49:19 10° SW 17:54:42 61° NW 18:00:08 10° NE
Cosmos 1943 Rocket 4.1 17:50:13 10° W 17:54:49 26° NW 17:59:24 10° NNE
SAR-Lupe-1 4.0 17:54:01 10° NNE 17:57:37 70° ESE 18:01:12 10° S
Aureole 3 3.5 17:56:04 10° SSE 17:58:55 29° E 18:00:42 16° NE
Cosmos 1331 Rocket 4.0 17:55:21 10° S 18:00:25 60° ESE 18:05:30 10° NNE
Cosmos 1606 Rocket 3.4 17:56:10 10° S 18:00:31 74° E 18:04:56 10° NNE
SKYMED 2 3.5 17:57:03 10° NNE 18:01:23 63° ESE 18:05:41 10° S
ATLAS 5 CENTAUR R/B 3.2 18:00:53 10° W 18:04:45 30° NNW 18:09:11 10° NE
Cosmos 2228 2.9 18:00:34 10° S 18:04:49 85° E 18:09:07 10° NNE
Cosmos 1244 Rocket 4.4 17:58:58 10° N 18:05:10 72° ENE 18:11:23 10° SSE
NOSS 2-2 (D) 4.3 18:00:38 10° NW 18:05:52 78° NE 18:13:11 10° SE
SL-4 R/B 1.7 18:02:28 10° W 18:06:00 83° NNW 18:08:01 26° ENE
CZ-2C R/B 3.3 18:03:24 10° SSE 18:09:07 62° ENE 18:14:42 10° N
Cosmos 292 Rocket 3.9 18:04:55 10° S 18:09:34 54° ESE 18:14:17 10° NNE
Cosmos 1346 Rocket 3.5 18:08:08 10° N 18:11:43 31° ENE 18:12:50 27° E
Cosmos 2227 Rocket 2.3 18:06:42 10° NNW 18:12:18 57° NE 18:17:08 14° SE
ARGOS 3.6 18:09:08 11° SE 18:13:59 39° ENE 18:19:01 10° N
Cosmos 1892 3.0 18:12:47 10° N 18:16:32 45° ENE 18:19:18 17° SE
Meteor 2-10 Rocket 4.2 18:11:57 10° SSE 18:16:35 31° E 18:21:05 10° NNE
SeaSat 1 2.6 18:14:54 18° SE 18:18:28 54° NE 18:23:18 10° NNW
CZ-2D R/B 3.5 18:16:55 10° S 18:20:43 71° WSW 18:24:32 10° NNW
USA 215 3.4 18:17:29 22° E 18:21:49 64° NNE 18:28:17 10° WNW
Cosmos 2263 Rocket 3.6 18:18:47 10° NNW 18:22:55 20° NE 18:24:13 19° NE
Cosmos 1656 4.2 18:18:19 10° S 18:23:20 36° ESE 18:26:21 21° NE
Cosmos 968 Rocket 3.5 18:18:09 10° NNW 18:23:20 57° ENE 18:26:57 19° SE
ATLAS 2AS CENTAUR R/B 3.7 18:16:51 10° NW 18:23:57 37° NNE 18:27:53 22° ENE
Cosmos 1953 Rocket 4.2 18:21:46 10° NNW 18:26:06 59° W 18:30:26 10° S
Cosmos 1110 Rocket 4.1 18:20:50 10° SSW 18:26:06 81° WNW 18:31:22 10° NNE
CSL-04 Rocket 3.7 18:21:21 10° SSE 18:26:50 64° ENE 18:32:18 10° N
Cosmos 2058 Rocket 3.0 18:22:40 10° S 18:27:07 70° E 18:31:38 10° NNE
Cosmos 1302 Rocket 4.0 18:23:48 10° S 18:28:56 56° ESE 18:34:07 10° NNE
Cosmos 1486 Rocket 4.0 18:24:29 10° NNW 18:29:50 66° ENE 18:33:47 18° SE
HJ-1C 3.4 18:30:28 51° E 18:30:36 52° ENE 18:33:54 10° N
Cosmos 1300 3.1 18:27:43 10° SSW 18:31:30 64° WNW 18:35:19 10° N
USA 307 3.0 18:27:15 10° WNW 18:31:31 65° NNE 18:32:53 40° E
Cosmos 1697 Rocket 4.1 18:30:44 10° SSE 18:32:53 19° SE 18:32:53 19° SE
USA 308 2.9 18:32:00 10° WNW 18:36:18 67° NNE 18:37:27 45° ENE
Helios 1A Rocket 3.9 18:34:31 10° S 18:38:32 48° W 18:42:33 10° NNW
Cosmos 1503 Rocket 4.2 18:33:56 10° NNW 18:38:59 48° ENE 18:40:29 37° ESE
GEOS 3 Rocket 4.0 18:36:45 13° SSE 18:41:31 66° SW 18:46:55 10° NW
DMSP B5D1-3 4.5 18:37:00 10° NNE 18:42:06 60° ESE 18:47:12 10° S
CRYOSAT 2 4.3 18:38:46 10° N 18:43:36 59° E 18:48:23 10° S
S3M 3.9 18:38:27 10° S 18:44:24 57° E 18:50:25 10° NNE
Cosmos 1825 3.4 18:42:23 10° N 18:44:30 27° NNE 18:44:30 27° NNE
Cosmos 1689 Rocket 3.9 18:44:32 10° N 18:47:09 31° WNW 18:49:45 10° SW
Cosmos 1354 Rocket 4.2 18:43:30 10° NNW 18:48:38 51° ENE 18:49:37 44° E
Resurs 01 Rocket 4.0 18:51:15 10° NNE 18:51:15 10° NNE 18:51:18 10° NNE
COSMO-SKYMED 1 3.6 18:45:14 10° N 18:49:24 46° WNW 18:53:33 10° SW
Cosmos 1408 2.7 18:47:28 10° N 18:50:33 59° NNE 18:50:33 59° NNE
Cosmos 2297 Rocket 2.5 18:47:07 10° NNW 18:52:46 68° WSW 18:57:46 13° SSE
FALCON 9 DEB 3.5 18:49:28 10° WNW 18:52:39 56° NNW 18:52:39 56° NNW
Cosmos 1417 Rocket 4.4 18:50:29 10° S 18:56:44 84° E 19:03:06 10° N
Cosmos 2058 2.7 18:52:53 10° N 18:57:01 89° E 18:57:58 52° S
MOS 1 Rocket 3.1 18:53:10 10° NNE 18:57:44 76° ESE 19:02:34 10° S
H-2A R/B 2.3 18:55:05 10° S 19:00:28 76° WSW 19:05:59 10° NNW
Cosmos 1340 4.0 18:57:12 10° NNW 19:00:46 40° W 19:04:19 10° SSW
SL-08 RB Rocket 3.6 19:03:12 65° ENE 19:03:12 65° ENE 19:07:30 10° N
CSL-04 Debris 4.5 18:58:07 10° S 19:03:32 67° WSW 19:09:00 10° NNW
CZ-4 R/B 3.1 19:00:40 10° SSW 19:04:11 32° W 19:07:42 10° NNW
Aureole 3 Rocket 3.9 19:02:20 10° SSW 19:06:06 51° WNW 19:11:16 10° N
Timation 1 Rocket 4.4 19:01:25 10° NNW 19:07:23 60° NE 19:08:21 53° E
YAOGAN 1 4.0 19:05:03 10° SSW 19:09:04 37° W 19:13:07 10° NNW
Cosmos 1076 Rocket 3.4 19:07:02 10° N 19:10:59 77° N 19:10:59 77° N
ERBS 4.2 19:08:46 10° WNW 19:10:58 25° NNW 19:10:58 25° NNW
Cosmos 1553 Rocket 4.3 19:09:25 10° SSW 19:15:45 68° WNW 19:22:03 10° N
Lacrosse 5 2.6 19:12:45 10° WNW 19:17:33 41° N 19:18:09 39° NNE
Cosmos 2219 4.3 19:12:41 10° NW 19:18:07 43° WSW 19:23:22 11° S
Ariane Rocket 3.0 19:18:51 65° NE 19:18:51 65° NE 19:23:33 10° N
Cosmos 1400 Rocket 4.3 19:15:38 10° SW 19:19:30 38° WNW 19:23:21 10° N
Geosat 4.2 19:17:11 24° NNE 19:20:16 69° NW 19:25:16 10° SW
BREEZE-M R/B 4.0 19:17:05 10° W 19:21:36 77° S 19:23:14 54° ESE
USA 305 3.3 19:19:23 10° WNW 19:23:00 61° WNW 19:23:00 61° WNW
MetOp-A 4.1 19:24:28 65° NE 19:24:28 65° NE 19:29:25 10° N
Cosmos 44 3.6 19:20:53 10° SW 19:25:23 59° NW 19:26:06 52° N
Cosmos 2082 3.8 19:23:26 10° NNW 19:29:11 75° WSW 19:30:18 58° S
USA 306 3.6 19:25:38 10° WNW 19:28:58 53° WNW 19:28:58 53° WNW
CZ-4C R/B 3.4 19:30:19 10° NW 19:36:32 40° NNE 19:37:16 39° NE
EO 1 Delta rocket 4.5 19:38:48 10° N 19:43:04 53° NNW 19:43:04 53° NNW
SL-4 R/B 4.0 19:41:59 10° WNW 19:43:36 25° WNW 19:43:36 25° WNW
ATLAS 5 CENTAUR R/B 3.8 19:47:22 10° NW 19:50:54 20° N 19:51:05 20° N
IRS-1A Rocket 4.4 19:53:01 69° WSW 19:53:01 69° WSW 19:58:34 10° NNW
NOSS 3-4 (A) 3.7 19:46:49 10° NW 19:53:40 75° NE 19:53:45 75° NE
NOSS 3-4 (C) 3.7 19:46:56 10° NW 19:53:46 74° NE 19:53:51 74° NE
ARGOS 4.4 19:50:40 18° SSW 19:54:16 38° W 19:59:21 10° NNW
Cosmos 2227 Rocket 3.9 19:51:15 10° NW 19:56:03 29° WSW 19:59:01 19° SSW
SeaSat 1 4.1 19:54:42 25° SW 19:56:13 29° WSW 20:00:31 10° NW
CZ-2C R/B 4.4 19:51:39 10° NNE 19:53:40 23° NNE 19:53:40 23° NNE
USA 215 3.3 20:04:50 67° SW 20:04:52 67° SW 20:11:24 10° WNW
Cosmos 2263 Rocket 3.1 20:02:12 10° NNW 20:05:55 41° NNW 20:05:55 41° NNW
ATLAS 2AS CENTAUR R/B 2.9 20:08:23 10° NW 20:15:19 72° N 20:15:19 72° N
Resurs 01 Rocket 4.5 20:28:50 12° NNW 20:28:50 12° NNW 20:29:08 10° NNW
Lacrosse 5 4.4 20:56:08 10° WNW 20:57:20 17° NW 20:57:20 17° NW
CZ-4C R/B 4.0 21:18:47 10° NW 21:22:26 36° NW 21:22:26 36° NW
